Powrót do katalogu

STARLINK-4191

AktywnyŁącznośćVLEO
NORAD 52860·PAYLOAD·🇺🇸 United States

Wystrzelony Jun 17, 2022 z Cape Canaveral Space Force Station

Loading…

Następne Przeloty (najbliższe 24 godziny)

TLE

ŚwieżeSource: CelesTrak SupGP

Epoka: Sep 14, 2026, 21:56 UTC

1 52860C 22062AG  26257.91437500  .00005033  00000+0  14402-3 0  2575
2 52860  53.1576 243.5687 0001277  97.6981 132.1371 15.35393466    16

Śledź STARLINK-4191 w czasie rzeczywistym z AllMySat

Download on the App Store